Time,TemperatureF,DewpointF,PressureIn,WindDirection,WindDirectionDegrees,WindSpeedMPH,WindSpeedGustMPH,Humidity,HourlyPrecipIn,Conditions,Clouds,dailyrainin,SoftwareType,DateUTC
2013-10-24 00:01:00,78.1,67.1,18.01,North,0,0.0,0.0,69,0.00,,SCT070,0.00,VWS V14.01,2013-10-24 04:01:00,
2013-10-24 00:02:00,78.1,67.1,18.01,North,0,0.0,0.0,69,0.00,,SCT070,0.00,VWS V14.01,2013-10-24 04:02:00,
2013-10-24 00:03:00,77.9,66.9,18.01,North,0,0.0,0.0,69,0.00,,SCT070,0.00,VWS V14.01,2013-10-24 04:03:00,
2013-10-24 00:08:00,77.9,67.3,18.01,North,0,0.0,0.0,70,0.00,,SCT070,0.00,VWS V14.01,2013-10-24 04:08:00,
2013-10-24 00:13:00,77.7,67.6,18.01,North,0,0.0,0.0,71,0.00,,SCT070,0.00,VWS V14.01,2013-10-24 04:13:00,
2013-10-24 00:18:00,77.5,67.4,18.01,North,0,0.0,0.0,71,0.00,,SCT070,0.00,VWS V14.01,2013-10-24 04:18:00,
2013-10-24 00:23:00,77.5,67.8,18.01,North,0,0.0,0.0,72,0.00,,SCT070,0.00,VWS V14.01,2013-10-24 04:23:00,
2013-10-24 00:28:00,77.5,67.8,18.01,North,0,0.0,0.0,72,0.00,,SCT070,0.00,VWS V14.01,2013-10-24 04:28:00,
2013-10-24 00:33:00,77.5,67.8,18.01,North,0,0.0,0.0,72,0.00,,SCT070,0.00,VWS V14.01,2013-10-24 04:33:00,
2013-10-24 00:38:00,77.4,67.6,18.01,North,0,0.0,0.0,72,0.00,,SCT070,0.00,VWS V14.01,2013-10-24 04:38:00,
2013-10-24 00:43:00,77.2,67.9,18.01,North,0,0.0,0.0,73,0.00,,SCT070,0.00,VWS V14.01,2013-10-24 04:43:00,
2013-10-24 00:48:00,77.2,67.9,18.01,North,0,0.0,0.0,73,0.00,,SCT070,0.00,VWS V14.01,2013-10-24 04:48:00,
2013-10-24 00:53:00,77.2,68.3,18.01,North,0,0.0,0.0,74,0.00,,SCT070,0.00,VWS V14.01,2013-10-24 04:53:00,
2013-10-24 00:58:00,77.2,68.3,18.01,North,0,0.0,0.0,74,0.00,,SCT070,0.00,VWS V14.01,2013-10-24 04:58:00,
2013-10-24 01:03:00,77.2,68.3,18.01,North,0,0.0,0.0,74,0.00,,SCT070,0.00,VWS V14.01,2013-10-24 05:03:00,
2013-10-24 01:08:00,77.0,68.1,18.01,North,0,0.0,0.0,74,0.00,,SCT070,0.00,VWS V14.01,2013-10-24 05:08:00,
2013-10-24 01:13:00,77.2,68.3,18.01,North,0,0.0,0.0,74,0.00,,SCT070,0.00,VWS V14.01,2013-10-24 05:13:00,
2013-10-24 01:18:00,77.4,68.8,18.01,North,0,0.0,0.0,75,0.00,,SCT070,0.00,VWS V14.01,2013-10-24 05:18:00,
2013-10-24 01:23:00,77.4,68.8,18.01,North,0,0.0,0.0,75,0.00,,SCT070,0.00,VWS V14.01,2013-10-24 05:23:00,
2013-10-24 01:28:00,77.5,69.0,18.01,North,0,0.0,0.0,75,0.00,,SCT070,0.00,VWS V14.01,2013-10-24 05:28:00,
2013-10-24 01:33:00,77.7,68.8,18.01,North,0,0.0,0.0,74,0.00,,SCT070,0.00,VWS V14.01,2013-10-24 05:33:00,
2013-10-24 01:38:00,77.9,68.6,18.01,North,0,0.0,0.0,73,0.00,,SCT070,0.00,VWS V14.01,2013-10-24 05:38:00,
2013-10-24 01:43:00,77.9,68.6,18.01,North,0,0.0,0.0,73,0.00,,SCT070,0.00,VWS V14.01,2013-10-24 05:43:00,
2013-10-24 01:48:00,78.1,69.1,18.01,North,0,0.0,0.0,74,0.00,,SCT070,0.00,VWS V14.01,2013-10-24 05:48:00,
2013-10-24 01:53:00,78.1,69.1,18.01,North,0,0.0,0.0,74,0.00,,SCT070,0.00,VWS V14.01,2013-10-24 05:53:00,
2013-10-24 01:58:00,78.1,69.1,18.01,North,0,0.0,0.0,74,0.00,,SCT070,0.00,VWS V14.01,2013-10-24 05:58:00,
2013-10-24 02:03:00,77.7,68.8,18.01,North,0,0.0,0.0,74,0.00,,SCT070,0.00,VWS V14.01,2013-10-24 06:03:00,
2013-10-24 02:08:00,77.7,69.2,18.01,North,0,0.0,0.0,75,0.00,,SCT070,0.00,VWS V14.01,2013-10-24 06:08:00,
2013-10-24 02:13:00,77.7,69.2,18.01,North,0,0.0,0.0,75,0.00,,SCT070,0.00,VWS V14.01,2013-10-24 06:13:00,
2013-10-24 02:18:00,77.7,69.2,18.01,North,0,0.0,0.0,75,0.00,,SCT070,0.00,VWS V14.01,2013-10-24 06:18:00,
2013-10-24 02:23:00,77.7,69.2,18.01,North,0,0.0,0.0,75,0.00,,SCT070,0.00,VWS V14.01,2013-10-24 06:23:00,
2013-10-24 02:28:00,77.9,69.3,18.01,North,0,0.0,0.0,75,0.00,,SCT070,0.00,VWS V14.01,2013-10-24 06:28:00,
2013-10-24 02:33:00,77.7,68.8,18.01,North,0,0.0,0.0,74,0.00,,SCT070,0.00,VWS V14.01,2013-10-24 06:33:00,
2013-10-24 02:38:00,77.9,68.9,18.01,North,0,0.0,0.0,74,0.00,,SCT070,0.00,VWS V14.01,2013-10-24 06:38:00,
2013-10-24 02:43:00,78.1,69.1,18.01,North,0,0.0,0.0,74,0.00,,SCT070,0.00,VWS V14.01,2013-10-24 06:43:00,
2013-10-24 02:48:00,78.1,69.1,18.01,North,0,0.0,0.0,74,0.00,,SCT070,0.00,VWS V14.01,2013-10-24 06:48:00,
2013-10-24 02:53:00,78.1,69.1,18.01,North,0,0.0,0.0,74,0.00,,SCT070,0.00,VWS V14.01,2013-10-24 06:53:00,
2013-10-24 02:58:00,78.1,69.1,18.01,North,0,0.0,0.0,74,0.00,,SCT070,0.00,VWS V14.01,2013-10-24 06:58:00,
2013-10-24 03:03:00,78.1,68.7,18.01,North,0,0.0,0.0,73,0.00,,SCT070,0.00,VWS V14.01,2013-10-24 07:03:00,
2013-10-24 03:08:00,78.1,68.3,18.01,North,0,0.0,0.0,72,0.00,,SCT070,0.00,VWS V14.01,2013-10-24 07:08:00,
2013-10-24 03:13:00,77.9,68.2,18.01,North,0,0.0,0.0,72,0.00,,SCT070,0.00,VWS V14.01,2013-10-24 07:13:00,
2013-10-24 03:18:00,77.7,68.0,18.01,North,0,0.0,0.0,72,0.00,,SCT070,0.00,VWS V14.01,2013-10-24 07:18:00,
2013-10-24 03:23:00,77.4,68.0,18.01,North,0,0.0,0.0,73,0.00,,SCT070,0.00,VWS V14.01,2013-10-24 07:23:00,
2013-10-24 03:28:00,77.2,67.9,18.01,North,0,0.0,0.0,73,0.00,,SCT070,0.00,VWS V14.01,2013-10-24 07:28:00,
2013-10-24 03:33:00,77.4,68.4,18.01,North,0,0.0,0.0,74,0.00,,SCT070,0.00,VWS V14.01,2013-10-24 07:33:00,
2013-10-24 03:38:00,77.4,68.4,18.01,North,0,0.0,0.0,74,0.00,,SCT070,0.00,VWS V14.01,2013-10-24 07:38:00,
2013-10-24 03:43:00,77.2,68.7,18.01,North,0,0.0,0.0,75,0.00,,SCT070,0.00,VWS V14.01,2013-10-24 07:43:00,
2013-10-24 03:48:00,77.2,68.7,18.01,North,0,0.0,0.0,75,0.00,,SCT070,0.00,VWS V14.01,2013-10-24 07:48:00,
2013-10-24 03:53:00,77.2,68.7,18.01,North,0,0.0,0.0,75,0.00,,SCT070,0.00,VWS V14.01,2013-10-24 07:53:00,
2013-10-24 03:58:00,77.0,68.5,18.01,North,0,0.0,0.0,75,0.00,,SCT070,0.00,VWS V14.01,2013-10-24 07:58:00,
2013-10-24 04:03:00,76.6,68.5,18.01,North,0,0.0,0.0,76,0.00,,SCT070,0.00,VWS V14.01,2013-10-24 08:03:00,
2013-10-24 04:08:00,76.6,68.9,18.01,North,0,0.0,0.0,77,0.00,,SCT070,0.00,VWS V14.01,2013-10-24 08:08:00,
2013-10-24 04:13:00,76.8,69.1,18.01,North,0,0.0,0.0,77,0.00,,SCT070,0.00,VWS V14.01,2013-10-24 08:13:00,
2013-10-24 04:18:00,76.6,68.9,18.01,North,0,0.0,0.0,77,0.00,,SCT070,0.00,VWS V14.01,2013-10-24 08:18:00,
2013-10-24 04:23:00,76.5,69.1,18.01,North,0,0.0,0.0,78,0.00,,SCT070,0.00,VWS V14.01,2013-10-24 08:23:00,
2013-10-24 04:28:00,76.3,69.3,18.01,North,0,0.0,0.0,79,0.00,,SCT070,0.00,VWS V14.01,2013-10-24 08:28:00,
2013-10-24 04:33:00,76.3,69.3,18.01,North,0,0.0,0.0,79,0.00,,SCT070,0.00,VWS V14.01,2013-10-24 08:33:00,
2013-10-24 04:38:00,76.3,69.3,18.01,North,0,0.0,0.0,79,0.00,,SCT070,0.00,VWS V14.01,2013-10-24 08:38:00,
2013-10-24 04:43:00,76.5,69.5,18.01,North,0,0.0,0.0,79,0.00,,SCT070,0.00,VWS V14.01,2013-10-24 08:43:00,
2013-10-24 04:48:00,76.3,69.3,18.01,North,0,0.0,0.0,79,0.00,,SCT070,0.00,VWS V14.01,2013-10-24 08:48:00,
2013-10-24 04:53:00,76.3,69.3,18.01,North,0,0.0,0.0,79,0.00,,SCT070,0.00,VWS V14.01,2013-10-24 08:53:00,
2013-10-24 04:58:00,76.1,69.1,18.01,North,0,0.0,0.0,79,0.00,,SCT070,0.00,VWS V14.01,2013-10-24 08:58:00,
2013-10-24 05:03:00,76.1,69.1,18.01,North,0,0.0,0.0,79,0.00,,SCT070,0.00,VWS V14.01,2013-10-24 09:03:00,
2013-10-24 05:08:00,76.1,69.5,18.01,North,0,0.0,0.0,80,0.00,,SCT070,0.00,VWS V14.01,2013-10-24 09:08:00,
2013-10-24 05:13:00,76.1,69.5,18.01,North,0,0.0,0.0,80,0.00,,SCT070,0.00,VWS V14.01,2013-10-24 09:13:00,
2013-10-24 05:18:00,75.9,69.3,18.01,North,0,0.0,0.0,80,0.00,,SCT070,0.00,VWS V14.01,2013-10-24 09:18:00,
2013-10-24 05:23:00,75.9,69.3,18.01,North,0,0.0,0.0,80,0.00,,SCT070,0.00,VWS V14.01,2013-10-24 09:23:00,
2013-10-24 05:28:00,75.9,69.7,18.01,North,0,0.0,0.0,81,0.00,,SCT070,0.00,VWS V14.01,2013-10-24 09:28:00,
2013-10-24 05:33:00,75.7,69.5,18.01,North,0,0.0,0.0,81,0.00,,SCT070,0.00,VWS V14.01,2013-10-24 09:33:00,
2013-10-24 05:38:00,75.7,69.5,18.01,North,0,0.0,0.0,81,0.00,,SCT070,0.00,VWS V14.01,2013-10-24 09:38:00,
2013-10-24 05:43:00,75.7,69.5,18.01,North,0,0.0,0.0,81,0.00,,SCT070,0.00,VWS V14.01,2013-10-24 09:43:00,
2013-10-24 05:48:00,75.7,69.5,18.01,North,0,0.0,0.0,81,0.00,,SCT070,0.00,VWS V14.01,2013-10-24 09:48:00,
2013-10-24 05:53:00,75.7,69.5,18.01,North,0,0.0,0.0,81,0.00,,SCT070,0.00,VWS V14.01,2013-10-24 09:53:00,
2013-10-24 05:58:00,75.7,69.5,18.01,North,0,0.0,0.0,81,0.00,,SCT070,0.00,VWS V14.01,2013-10-24 09:58:00,
2013-10-24 06:03:00,75.7,69.5,18.01,North,0,0.0,0.0,81,0.00,,SCT070,0.00,VWS V14.01,2013-10-24 10:03:00,
2013-10-24 06:08:00,75.6,69.3,18.01,North,0,0.0,0.0,81,0.00,,SCT070,0.00,VWS V14.01,2013-10-24 10:08:00,
2013-10-24 06:13:00,75.4,69.2,18.01,North,0,0.0,0.0,81,0.00,,SCT070,0.00,VWS V14.01,2013-10-24 10:13:00,
2013-10-24 06:18:00,75.4,68.8,18.01,North,0,0.0,0.0,80,0.00,,SCT070,0.00,VWS V14.01,2013-10-24 10:18:00,
2013-10-24 06:23:00,75.2,68.6,18.01,North,0,0.0,0.0,80,0.00,,SCT070,0.00,VWS V14.01,2013-10-24 10:23:00,
2013-10-24 06:28:00,75.4,69.2,18.01,North,0,0.0,0.0,81,0.00,,SCT070,0.00,VWS V14.01,2013-10-24 10:28:00,
2013-10-24 06:33:00,75.4,69.2,18.01,North,0,0.0,0.0,81,0.00,,SCT070,0.00,VWS V14.01,2013-10-24 10:33:00,
2013-10-24 06:38:00,75.4,69.2,18.01,North,0,0.0,0.0,81,0.00,,SCT070,0.00,VWS V14.01,2013-10-24 10:38:00,
2013-10-24 06:43:00,75.4,69.2,18.01,North,0,0.0,0.0,81,0.00,,SCT070,0.00,VWS V14.01,2013-10-24 10:43:00,
2013-10-24 06:48:00,75.4,69.2,18.01,North,0,0.0,0.0,81,0.00,,SCT070,0.00,VWS V14.01,2013-10-24 10:48:00,
2013-10-24 06:53:00,75.6,69.3,18.01,North,0,0.0,0.0,81,0.00,,SCT070,0.00,VWS V14.01,2013-10-24 10:53:00,
2013-10-24 06:58:00,75.6,69.3,18.01,North,0,0.0,0.0,81,0.00,,SCT070,0.00,VWS V14.01,2013-10-24 10:58:00,
2013-10-24 07:03:00,75.7,69.5,18.01,North,0,0.0,0.0,81,0.00,,SCT070,0.00,VWS V14.01,2013-10-24 11:03:00,
2013-10-24 07:08:00,75.9,70.0,18.01,North,0,0.0,0.0,82,0.00,,SCT070,0.00,VWS V14.01,2013-10-24 11:08:00,
2013-10-24 07:13:00,76.3,70.4,18.01,North,0,0.0,0.0,82,0.00,,SCT070,0.00,VWS V14.01,2013-10-24 11:13:00,
2013-10-24 07:18:00,76.6,70.7,18.01,North,0,0.0,0.0,82,0.00,,SCT070,0.00,VWS V14.01,2013-10-24 11:18:00,
2013-10-24 07:23:00,77.0,71.1,18.01,North,0,0.0,0.0,82,0.00,,SCT070,0.00,VWS V14.01,2013-10-24 11:23:00,
2013-10-24 07:28:00,77.4,71.4,18.01,North,0,0.0,0.0,82,0.00,,SCT070,0.00,VWS V14.01,2013-10-24 11:28:00,
2013-10-24 07:33:00,77.5,71.6,18.01,North,0,0.0,0.0,82,0.00,,SCT070,0.00,VWS V14.01,2013-10-24 11:33:00,
2013-10-24 07:38:00,77.5,71.6,18.01,North,0,0.0,0.0,82,0.00,,SCT070,0.00,VWS V14.01,2013-10-24 11:38:00,
2013-10-24 07:43:00,77.5,71.6,18.01,North,0,0.0,0.0,82,0.00,,SCT070,0.00,VWS V14.01,2013-10-24 11:43:00,
2013-10-24 07:48:00,77.5,71.6,18.01,North,0,0.0,0.0,82,0.00,,SCT070,0.00,VWS V14.01,2013-10-24 11:48:00,
2013-10-24 07:53:00,77.5,71.6,18.01,North,0,0.0,0.0,82,0.00,,SCT070,0.00,VWS V14.01,2013-10-24 11:53:00,
2013-10-24 07:58:00,77.5,71.6,18.01,North,0,0.0,0.0,82,0.00,,SCT070,0.00,VWS V14.01,2013-10-24 11:58:00,
2013-10-24 08:03:00,77.5,71.6,18.01,North,0,0.0,0.0,82,0.00,,SCT070,0.00,VWS V14.01,2013-10-24 12:03:00,
2013-10-24 08:08:00,77.5,71.6,18.01,North,0,0.0,0.0,82,0.00,,SCT070,0.00,VWS V14.01,2013-10-24 12:08:00,
2013-10-24 08:13:00,77.5,71.6,18.01,North,0,0.0,0.0,82,0.00,,SCT070,0.00,VWS V14.01,2013-10-24 12:13:00,
2013-10-24 08:18:00,77.5,71.6,18.01,North,0,0.0,0.0,82,0.00,,SCT070,0.00,VWS V14.01,2013-10-24 12:18:00,
2013-10-24 08:23:00,77.5,71.6,18.01,North,0,0.0,0.0,82,0.00,,SCT070,0.00,VWS V14.01,2013-10-24 12:23:00,
2013-10-24 08:28:00,77.5,71.6,18.01,North,0,0.0,0.0,82,0.00,,SCT070,0.00,VWS V14.01,2013-10-24 12:28:00,
2013-10-24 08:33:00,77.5,71.6,18.01,North,0,0.0,0.0,82,0.00,,SCT070,0.00,VWS V14.01,2013-10-24 12:33:00,
2013-10-24 08:38:00,77.5,71.6,18.01,North,0,0.0,0.0,82,0.00,,SCT070,0.00,VWS V14.01,2013-10-24 12:38:00,
2013-10-24 08:43:00,77.5,71.6,18.01,North,0,0.0,0.0,82,0.00,,SCT070,0.00,VWS V14.01,2013-10-24 12:43:00,
2013-10-24 08:48:00,77.5,71.6,18.01,North,0,0.0,0.0,82,0.00,,SCT070,0.00,VWS V14.01,2013-10-24 12:48:00,
2013-10-24 08:53:00,77.5,71.6,18.01,North,0,0.0,0.0,82,0.00,,SCT070,0.00,VWS V14.01,2013-10-24 12:53:00,
2013-10-24 08:58:00,77.5,71.6,18.01,North,0,0.0,0.0,82,0.00,,SCT070,0.00,VWS V14.01,2013-10-24 12:58:00,
2013-10-24 09:03:00,84.7,61.7,18.01,North,0,0.0,0.0,46,0.00,,SCT070,0.00,VWS V14.01,2013-10-24 13:03:00,
2013-10-24 09:08:00,84.9,58.6,18.01,North,0,0.0,0.0,41,0.00,,SCT070,0.00,VWS V14.01,2013-10-24 13:08:00,
2013-10-24 09:13:00,85.5,58.4,18.01,North,0,0.0,0.0,40,0.00,,SCT070,0.00,VWS V14.01,2013-10-24 13:13:00,
2013-10-24 09:18:00,86.0,58.2,18.01,North,0,0.0,0.0,39,0.00,,SCT070,0.00,VWS V14.01,2013-10-24 13:18:00,
2013-10-24 09:23:00,86.2,55.3,18.01,North,0,0.0,0.0,35,0.00,,SCT070,0.00,VWS V14.01,2013-10-24 13:23:00,
2013-10-24 09:28:00,86.5,53.2,18.01,North,0,0.0,0.0,32,0.00,,SCT070,0.00,VWS V14.01,2013-10-24 13:28:00,
2013-10-24 09:33:00,86.7,53.4,18.01,North,0,0.0,0.0,32,0.00,,SCT070,0.00,VWS V14.01,2013-10-24 13:33:00,
2013-10-24 09:38:00,86.9,51.8,18.01,North,0,0.0,0.0,30,0.00,,SCT070,0.00,VWS V14.01,2013-10-24 13:38:00,
2013-10-24 09:43:00,87.3,52.1,18.01,North,0,0.0,0.0,30,0.00,,SCT070,0.00,VWS V14.01,2013-10-24 13:43:00,
2013-10-24 09:48:00,87.6,51.5,18.01,North,0,0.0,0.0,29,0.00,,SCT070,0.00,VWS V14.01,2013-10-24 13:48:00,
2013-10-24 09:53:00,87.6,50.5,18.01,North,0,0.0,0.0,28,0.00,,SCT070,0.00,VWS V14.01,2013-10-24 13:53:00,
2013-10-24 09:58:00,88.2,51.0,18.01,North,0,0.0,0.0,28,0.00,,SCT070,0.00,VWS V14.01,2013-10-24 13:58:00,
2013-10-24 10:03:00,88.3,47.0,18.01,North,0,0.0,0.0,24,0.00,,SCT070,0.00,VWS V14.01,2013-10-24 14:03:00,
2013-10-24 10:08:00,88.3,44.7,18.01,North,0,0.0,0.0,22,0.00,,SCT070,0.00,VWS V14.01,2013-10-24 14:08:00,
2013-10-24 10:13:00,88.5,48.2,18.01,North,0,0.0,0.0,25,0.00,,SCT070,0.00,VWS V14.01,2013-10-24 14:13:00,
2013-10-24 10:18:00,88.3,47.0,18.01,North,0,0.0,0.0,24,0.00,,SCT070,0.00,VWS V14.01,2013-10-24 14:18:00,
2013-10-24 10:23:00,88.7,46.2,18.01,North,0,0.0,0.0,23,0.00,,SCT070,0.00,VWS V14.01,2013-10-24 14:23:00,
2013-10-24 10:28:00,88.9,43.9,18.01,North,0,0.0,0.0,21,0.00,,SCT070,0.00,VWS V14.01,2013-10-24 14:28:00,
2013-10-24 10:33:00,89.4,45.6,18.01,North,0,0.0,0.0,22,0.00,,SCT070,0.00,VWS V14.01,2013-10-24 14:33:00,
2013-10-24 10:38:00,89.2,44.2,18.01,North,0,0.0,0.0,21,0.00,,SCT070,0.00,VWS V14.01,2013-10-24 14:38:00,
2013-10-24 10:43:00,89.8,42.1,18.01,North,0,0.0,0.0,19,0.00,,SCT070,0.00,VWS V14.01,2013-10-24 14:43:00,
2013-10-24 10:48:00,89.8,42.1,18.01,North,0,0.0,0.0,19,0.00,,SCT070,0.00,VWS V14.01,2013-10-24 14:48:00,
2013-10-24 10:53:00,89.8,43.4,18.01,North,0,0.0,0.0,20,0.00,,SCT070,0.00,VWS V14.01,2013-10-24 14:53:00,
2013-10-24 10:58:00,90.3,42.5,18.01,North,0,0.0,0.0,19,0.00,,SCT070,0.00,VWS V14.01,2013-10-24 14:58:00,
2013-10-24 11:03:00,91.0,41.7,18.01,North,0,0.0,0.0,18,0.00,,SCT070,0.00,VWS V14.01,2013-10-24 15:03:00,
2013-10-24 11:08:00,91.4,43.4,18.01,North,0,0.0,0.0,19,0.00,,SCT070,0.00,VWS V14.01,2013-10-24 15:08:00,
2013-10-24 11:13:00,91.8,42.3,18.01,North,0,0.0,0.0,18,0.00,,SCT070,0.00,VWS V14.01,2013-10-24 15:13:00,
2013-10-24 11:18:00,91.9,40.9,18.01,North,0,0.0,0.0,17,0.00,,SCT070,0.00,VWS V14.01,2013-10-24 15:18:00,
2013-10-24 11:23:00,92.3,41.2,18.01,North,0,0.0,0.0,17,0.00,,SCT070,0.00,VWS V14.01,2013-10-24 15:23:00,
2013-10-24 11:28:00,92.5,41.4,18.01,North,0,0.0,0.0,17,0.00,,SCT070,0.00,VWS V14.01,2013-10-24 15:28:00,
2013-10-24 11:33:00,92.1,32.3,18.01,North,0,0.0,0.0,12,0.00,,SCT070,0.00,VWS V14.01,2013-10-24 15:33:00,
2013-10-24 11:38:00,92.3,32.4,18.01,North,0,0.0,0.0,12,0.00,,SCT070,0.00,VWS V14.01,2013-10-24 15:38:00,
2013-10-24 11:43:00,92.8,32.8,18.01,North,0,0.0,0.0,12,0.00,,SCT070,0.00,VWS V14.01,2013-10-24 15:43:00,
2013-10-24 11:48:00,93.2,31.0,18.01,North,0,0.0,0.0,11,0.00,,SCT070,0.00,VWS V14.01,2013-10-24 15:48:00,
2013-10-24 11:53:00,93.0,25.9,18.01,North,0,0.0,0.0,9,0.00,,SCT070,0.00,VWS V14.01,2013-10-24 15:53:00,
2013-10-24 11:58:00,93.0,33.0,18.01,North,0,0.0,0.0,12,0.00,,SCT070,0.00,VWS V14.01,2013-10-24 15:58:00,
2013-10-24 12:03:00,93.2,26.0,18.01,North,0,0.0,0.0,9,0.00,,SCT070,0.00,VWS V14.01,2013-10-24 16:03:00,
2013-10-24 12:08:00,93.4,26.2,18.01,North,0,0.0,0.0,9,0.00,,SCT070,0.00,VWS V14.01,2013-10-24 16:08:00,
2013-10-24 12:13:00,93.6,26.3,18.01,North,0,0.0,0.0,9,0.00,,SCT070,0.00,VWS V14.01,2013-10-24 16:13:00,
2013-10-24 12:18:00,93.7,26.5,18.01,North,0,0.0,0.0,9,0.00,,SCT070,0.00,VWS V14.01,2013-10-24 16:18:00,
2013-10-24 12:23:00,94.3,26.9,18.01,North,0,0.0,0.0,9,0.00,,SCT070,0.00,VWS V14.01,2013-10-24 16:23:00,
2013-10-24 12:28:00,94.8,17.7,18.01,North,0,0.0,0.0,6,0.00,,SCT070,0.00,VWS V14.01,2013-10-24 16:28:00,
2013-10-24 12:33:00,95.2,27.5,18.01,North,0,0.0,0.0,9,0.00,,SCT070,0.00,VWS V14.01,2013-10-24 16:33:00,
2013-10-24 12:38:00,95.0,27.4,18.01,North,0,0.0,0.0,9,0.00,,SCT070,0.00,VWS V14.01,2013-10-24 16:38:00,
2013-10-24 12:43:00,95.2,27.5,18.01,North,0,0.0,0.0,9,0.00,,SCT070,0.00,VWS V14.01,2013-10-24 16:43:00,
2013-10-24 12:48:00,93.9,31.5,18.01,North,0,0.0,0.0,11,0.00,,SCT070,0.00,VWS V14.01,2013-10-24 16:48:00,
2013-10-24 12:53:00,93.6,42.2,18.01,North,0,0.0,0.0,17,0.00,,SCT070,0.00,VWS V14.01,2013-10-24 16:53:00,
2013-10-24 12:58:00,94.5,41.4,18.01,North,0,0.0,0.0,16,0.00,,SCT070,0.00,VWS V14.01,2013-10-24 16:58:00,
2013-10-24 13:03:00,95.2,32.5,18.01,North,0,0.0,0.0,11,0.00,,SCT070,0.00,VWS V14.01,2013-10-24 17:03:00,
2013-10-24 13:08:00,95.9,28.1,18.01,North,0,0.0,0.0,9,0.00,,SCT070,0.00,VWS V14.01,2013-10-24 17:08:00,
2013-10-24 13:13:00,95.9,28.1,18.01,North,0,0.0,0.0,9,0.00,,SCT070,0.00,VWS V14.01,2013-10-24 17:13:00,
2013-10-24 13:18:00,96.3,28.3,18.01,North,0,0.0,0.0,9,0.00,,SCT070,0.00,VWS V14.01,2013-10-24 17:18:00,
2013-10-24 13:23:00,96.4,18.8,18.01,North,0,0.0,0.0,6,0.00,,SCT070,0.00,VWS V14.01,2013-10-24 17:23:00,
2013-10-24 13:28:00,96.6,18.9,18.01,North,0,0.0,0.0,6,0.00,,SCT070,0.00,VWS V14.01,2013-10-24 17:28:00,
2013-10-24 13:33:00,96.4,18.8,18.01,North,0,0.0,0.0,6,0.00,,SCT070,0.00,VWS V14.01,2013-10-24 17:33:00,
2013-10-24 13:38:00,96.3,18.7,18.01,North,0,0.0,0.0,6,0.00,,SCT070,0.00,VWS V14.01,2013-10-24 17:38:00,
2013-10-24 13:43:00,96.6,18.9,18.01,North,0,0.0,0.0,6,0.00,,SCT070,0.00,VWS V14.01,2013-10-24 17:43:00,
2013-10-24 13:48:00,97.2,19.3,18.01,North,0,0.0,0.0,6,0.00,,SCT070,0.00,VWS V14.01,2013-10-24 17:48:00,
2013-10-24 13:53:00,97.7,19.7,18.01,North,0,0.0,0.0,6,0.00,,SCT070,0.00,VWS V14.01,2013-10-24 17:53:00,
2013-10-24 13:58:00,97.7,19.7,18.01,North,0,0.0,0.0,6,0.00,,SCT070,0.00,VWS V14.01,2013-10-24 17:58:00,
2013-10-24 14:03:00,96.4,18.8,18.01,North,0,0.0,0.0,6,0.00,,SCT070,0.00,VWS V14.01,2013-10-24 18:03:00,
2013-10-24 14:08:00,95.9,28.1,18.01,North,0,0.0,0.0,9,0.00,,SCT070,0.00,VWS V14.01,2013-10-24 18:08:00,
2013-10-24 14:13:00,96.1,28.2,18.01,North,0,0.0,0.0,9,0.00,,SCT070,0.00,VWS V14.01,2013-10-24 18:13:00,
2013-10-24 14:18:00,96.1,28.2,18.01,North,0,0.0,0.0,9,0.00,,SCT070,0.00,VWS V14.01,2013-10-24 18:18:00,
2013-10-24 14:23:00,95.9,28.1,18.01,North,0,0.0,0.0,9,0.00,,SCT070,0.00,VWS V14.01,2013-10-24 18:23:00,
2013-10-24 14:28:00,95.2,27.5,18.01,North,0,0.0,0.0,9,0.00,,SCT070,0.00,VWS V14.01,2013-10-24 18:28:00,
2013-10-24 14:33:00,94.8,27.3,18.01,North,0,0.0,0.0,9,0.00,,SCT070,0.00,VWS V14.01,2013-10-24 18:33:00,
2013-10-24 14:38:00,95.4,27.7,18.01,North,0,0.0,0.0,9,0.00,,SCT070,0.00,VWS V14.01,2013-10-24 18:38:00,
2013-10-24 14:43:00,95.4,27.7,18.01,North,0,0.0,0.0,9,0.00,,SCT070,0.00,VWS V14.01,2013-10-24 18:43:00,
2013-10-24 14:48:00,95.0,27.4,18.01,North,0,0.0,0.0,9,0.00,,SCT070,0.00,VWS V14.01,2013-10-24 18:48:00,
2013-10-24 14:53:00,94.5,27.0,18.01,North,0,0.0,0.0,9,0.00,,SCT070,0.00,VWS V14.01,2013-10-24 18:53:00,
2013-10-24 14:58:00,94.8,27.3,18.01,North,0,0.0,0.0,9,0.00,,SCT070,0.00,VWS V14.01,2013-10-24 18:58:00,
2013-10-24 15:03:00,94.5,31.9,18.01,North,0,0.0,0.0,11,0.00,,SCT070,0.00,VWS V14.01,2013-10-24 19:03:00,
2013-10-24 15:08:00,94.5,31.9,18.01,North,0,0.0,0.0,11,0.00,,SCT070,0.00,VWS V14.01,2013-10-24 19:08:00,
2013-10-24 15:13:00,93.6,37.3,18.01,North,0,0.0,0.0,14,0.00,,SCT070,0.00,VWS V14.01,2013-10-24 19:13:00,
2013-10-24 15:18:00,93.2,37.0,18.01,North,0,0.0,0.0,14,0.00,,SCT070,0.00,VWS V14.01,2013-10-24 19:18:00,
2013-10-24 15:23:00,92.7,41.5,18.01,North,0,0.0,0.0,17,0.00,,SCT070,0.00,VWS V14.01,2013-10-24 19:23:00,
2013-10-24 15:28:00,92.8,41.7,18.01,North,0,0.0,0.0,17,0.00,,SCT070,0.00,VWS V14.01,2013-10-24 19:28:00,
2013-10-24 15:33:00,92.5,41.4,18.01,North,0,0.0,0.0,17,0.00,,SCT070,0.00,VWS V14.01,2013-10-24 19:33:00,
2013-10-24 15:38:00,92.3,41.2,18.01,North,0,0.0,0.0,17,0.00,,SCT070,0.00,VWS V14.01,2013-10-24 19:38:00,
2013-10-24 15:43:00,91.9,42.4,18.01,North,0,0.0,0.0,18,0.00,,SCT070,0.00,VWS V14.01,2013-10-24 19:43:00,
2013-10-24 15:48:00,91.8,42.3,18.01,North,0,0.0,0.0,18,0.00,,SCT070,0.00,VWS V14.01,2013-10-24 19:48:00,
2013-10-24 15:53:00,91.8,42.3,18.01,North,0,0.0,0.0,18,0.00,,SCT070,0.00,VWS V14.01,2013-10-24 19:53:00,
2013-10-24 15:58:00,91.6,42.1,18.01,North,0,0.0,0.0,18,0.00,,SCT070,0.00,VWS V14.01,2013-10-24 19:58:00,
2013-10-24 16:03:00,91.8,43.7,18.01,North,0,0.0,0.0,19,0.00,,SCT070,0.00,VWS V14.01,2013-10-24 20:03:00,
2013-10-24 16:08:00,91.2,48.3,18.01,North,0,0.0,0.0,23,0.00,,SCT070,0.00,VWS V14.01,2013-10-24 20:08:00,
2013-10-24 16:13:00,91.0,50.4,18.01,North,0,0.0,0.0,25,0.00,,SCT070,0.00,VWS V14.01,2013-10-24 20:13:00,
2013-10-24 16:18:00,90.9,49.1,18.01,North,0,0.0,0.0,24,0.00,,SCT070,0.00,VWS V14.01,2013-10-24 20:18:00,
2013-10-24 16:23:00,90.7,45.4,18.01,North,0,0.0,0.0,21,0.00,,SCT070,0.00,VWS V14.01,2013-10-24 20:23:00,
2013-10-24 16:28:00,90.5,44.0,18.01,North,0,0.0,0.0,20,0.00,,SCT070,0.00,VWS V14.01,2013-10-24 20:28:00,
2013-10-24 16:33:00,90.3,43.8,18.01,North,0,0.0,0.0,20,0.00,,SCT070,0.00,VWS V14.01,2013-10-24 20:33:00,
2013-10-24 16:38:00,90.3,43.8,18.01,North,0,0.0,0.0,20,0.00,,SCT070,0.00,VWS V14.01,2013-10-24 20:38:00,
2013-10-24 16:43:00,90.1,43.7,18.01,North,0,0.0,0.0,20,0.00,,SCT070,0.00,VWS V14.01,2013-10-24 20:43:00,
2013-10-24 16:48:00,90.0,44.8,18.01,North,0,0.0,0.0,21,0.00,,SCT070,0.00,VWS V14.01,2013-10-24 20:48:00,
2013-10-24 16:53:00,89.8,44.7,18.01,North,0,0.0,0.0,21,0.00,,SCT070,0.00,VWS V14.01,2013-10-24 20:53:00,
2013-10-24 16:58:00,89.6,44.5,18.01,North,0,0.0,0.0,21,0.00,,SCT070,0.00,VWS V14.01,2013-10-24 20:58:00,
2013-10-24 17:03:00,89.4,44.4,18.01,North,0,0.0,0.0,21,0.00,,SCT070,0.00,VWS V14.01,2013-10-24 21:03:00,
2013-10-24 17:08:00,89.2,45.5,18.01,North,0,0.0,0.0,22,0.00,,SCT070,0.00,VWS V14.01,2013-10-24 21:08:00,
2013-10-24 17:13:00,89.2,45.5,18.01,North,0,0.0,0.0,22,0.00,,SCT070,0.00,VWS V14.01,2013-10-24 21:13:00,
2013-10-24 17:18:00,89.2,46.6,18.01,North,0,0.0,0.0,23,0.00,,SCT070,0.00,VWS V14.01,2013-10-24 21:18:00,
2013-10-24 17:23:00,89.2,47.8,18.01,North,0,0.0,0.0,24,0.00,,SCT070,0.00,VWS V14.01,2013-10-24 21:23:00,
2013-10-24 17:28:00,88.9,48.5,18.01,North,0,0.0,0.0,25,0.00,,SCT070,0.00,VWS V14.01,2013-10-24 21:28:00,
2013-10-24 17:33:00,88.7,49.5,18.01,North,0,0.0,0.0,26,0.00,,SCT070,0.00,VWS V14.01,2013-10-24 21:33:00,
2013-10-24 17:38:00,88.5,51.3,18.01,North,0,0.0,0.0,28,0.00,,SCT070,0.00,VWS V14.01,2013-10-24 21:38:00,
2013-10-24 17:43:00,88.5,51.3,18.01,North,0,0.0,0.0,28,0.00,,SCT070,0.00,VWS V14.01,2013-10-24 21:43:00,
2013-10-24 17:48:00,88.3,51.1,18.01,North,0,0.0,0.0,28,0.00,,SCT070,0.00,VWS V14.01,2013-10-24 21:48:00,
2013-10-24 17:53:00,88.3,51.1,18.01,North,0,0.0,0.0,28,0.00,,SCT070,0.00,VWS V14.01,2013-10-24 21:53:00,
2013-10-24 17:58:00,88.0,50.8,18.01,North,0,0.0,0.0,28,0.00,,SCT070,0.00,VWS V14.01,2013-10-24 21:58:00,
2013-10-24 18:03:00,87.8,51.6,18.01,North,0,0.0,0.0,29,0.00,,SCT070,0.00,VWS V14.01,2013-10-24 22:03:00,
2013-10-24 18:08:00,87.8,51.6,18.01,North,0,0.0,0.0,29,0.00,,SCT070,0.00,VWS V14.01,2013-10-24 22:08:00,
2013-10-24 18:13:00,87.6,52.4,18.01,North,0,0.0,0.0,30,0.00,,SCT070,0.00,VWS V14.01,2013-10-24 22:13:00,
2013-10-24 18:18:00,87.4,52.2,18.01,North,0,0.0,0.0,30,0.00,,SCT070,0.00,VWS V14.01,2013-10-24 22:18:00,
2013-10-24 18:23:00,87.4,52.2,18.01,North,0,0.0,0.0,30,0.00,,SCT070,0.00,VWS V14.01,2013-10-24 22:23:00,
2013-10-24 18:28:00,87.3,53.0,18.01,North,0,0.0,0.0,31,0.00,,SCT070,0.00,VWS V14.01,2013-10-24 22:28:00,
2013-10-24 18:33:00,87.1,52.8,18.01,North,0,0.0,0.0,31,0.00,,SCT070,0.00,VWS V14.01,2013-10-24 22:33:00,
2013-10-24 18:38:00,86.9,52.7,18.01,North,0,0.0,0.0,31,0.00,,SCT070,0.00,VWS V14.01,2013-10-24 22:38:00,
2013-10-24 18:43:00,86.9,52.7,18.01,North,0,0.0,0.0,31,0.00,,SCT070,0.00,VWS V14.01,2013-10-24 22:43:00,
2013-10-24 18:48:00,86.9,52.7,18.01,North,0,0.0,0.0,31,0.00,,SCT070,0.00,VWS V14.01,2013-10-24 22:48:00,
2013-10-24 18:53:00,86.9,53.5,18.01,North,0,0.0,0.0,32,0.00,,SCT070,0.00,VWS V14.01,2013-10-24 22:53:00,
2013-10-24 18:58:00,86.9,53.5,18.01,North,0,0.0,0.0,32,0.00,,SCT070,0.00,VWS V14.01,2013-10-24 22:58:00,
2013-10-24 19:01:00,86.7,53.4,18.01,North,0,0.0,0.0,32,0.00,,SCT070,0.00,VWS V14.01,2013-10-24 23:01:00,
2013-10-24 19:06:00,86.4,53.0,18.01,North,0,0.0,0.0,32,0.00,,SCT070,0.00,VWS V14.01,2013-10-24 23:06:00,
2013-10-24 19:11:00,86.4,53.9,18.01,North,0,0.0,0.0,33,0.00,,SCT070,0.00,VWS V14.01,2013-10-24 23:11:00,
2013-10-24 19:16:00,86.0,54.4,18.01,North,0,0.0,0.0,34,0.00,,SCT070,0.00,VWS V14.01,2013-10-24 23:16:00,
2013-10-24 19:21:00,86.0,55.2,18.01,North,0,0.0,0.0,35,0.00,,SCT070,0.00,VWS V14.01,2013-10-24 23:21:00,
2013-10-24 19:26:00,85.8,55.8,18.01,North,0,0.0,0.0,36,0.00,,SCT070,0.00,VWS V14.01,2013-10-24 23:26:00,
2013-10-24 19:31:00,85.8,55.8,18.01,North,0,0.0,0.0,36,0.00,,SCT070,0.00,VWS V14.01,2013-10-24 23:31:00,
2013-10-24 19:36:00,86.0,56.0,18.01,North,0,0.0,0.0,36,0.00,,SCT070,0.00,VWS V14.01,2013-10-24 23:36:00,
2013-10-24 19:41:00,86.0,56.0,18.01,North,0,0.0,0.0,36,0.00,,SCT070,0.00,VWS V14.01,2013-10-24 23:41:00,
2013-10-24 19:46:00,86.2,56.1,18.01,North,0,0.0,0.0,36,0.00,,SCT070,0.00,VWS V14.01,2013-10-24 23:46:00,
2013-10-24 19:51:00,86.0,56.0,18.01,North,0,0.0,0.0,36,0.00,,SCT070,0.00,VWS V14.01,2013-10-24 23:51:00,
2013-10-24 19:56:00,85.6,55.7,18.01,North,0,0.0,0.0,36,0.00,,SCT070,0.00,VWS V14.01,2013-10-24 23:56:00,
2013-10-24 20:01:00,85.3,56.1,18.01,North,0,0.0,0.0,37,0.00,,SCT070,0.00,VWS V14.01,2013-10-25 00:01:00,
2013-10-24 20:06:00,84.9,56.5,18.01,North,0,0.0,0.0,38,0.00,,SCT070,0.00,VWS V14.01,2013-10-25 00:06:00,
2013-10-24 20:11:00,84.7,57.1,18.01,North,0,0.0,0.0,39,0.00,,SCT070,0.00,VWS V14.01,2013-10-25 00:11:00,
2013-10-24 20:16:00,84.6,56.9,18.01,North,0,0.0,0.0,39,0.00,,SCT070,0.00,VWS V14.01,2013-10-25 00:16:00,
2013-10-24 20:21:00,84.2,57.3,18.01,North,0,0.0,0.0,40,0.00,,SCT070,0.00,VWS V14.01,2013-10-25 00:21:00,
2013-10-24 20:26:00,83.8,57.7,18.01,North,0,0.0,0.0,41,0.00,,SCT070,0.00,VWS V14.01,2013-10-25 00:26:00,
2013-10-24 20:31:00,83.8,58.3,18.01,North,0,0.0,0.0,42,0.00,,SCT070,0.00,VWS V14.01,2013-10-25 00:31:00,
2013-10-24 20:36:00,84.0,59.1,18.01,North,0,0.0,0.0,43,0.00,,SCT070,0.00,VWS V14.01,2013-10-25 00:36:00,
2013-10-24 20:41:00,84.2,59.3,18.01,North,0,0.0,0.0,43,0.00,,SCT070,0.00,VWS V14.01,2013-10-25 00:41:00,
2013-10-24 20:46:00,84.4,59.5,18.01,North,0,0.0,0.0,43,0.00,,SCT070,0.00,VWS V14.01,2013-10-25 00:46:00,
2013-10-24 20:51:00,84.6,59.6,18.01,North,0,0.0,0.0,43,0.00,,SCT070,0.00,VWS V14.01,2013-10-25 00:51:00,
2013-10-24 20:56:00,84.6,59.0,18.01,North,0,0.0,0.0,42,0.00,,SCT070,0.00,VWS V14.01,2013-10-25 00:56:00,
2013-10-24 21:01:00,84.2,58.6,18.01,North,0,0.0,0.0,42,0.00,,SCT070,0.00,VWS V14.01,2013-10-25 01:01:00,
2013-10-24 21:06:00,83.8,59.6,18.01,North,0,0.0,0.0,44,0.00,,SCT070,0.00,VWS V14.01,2013-10-25 01:06:00,
2013-10-24 21:11:00,83.3,59.1,18.01,North,0,0.0,0.0,44,0.00,,SCT070,0.00,VWS V14.01,2013-10-25 01:11:00,
2013-10-24 21:16:00,83.3,61.0,18.01,North,0,0.0,0.0,47,0.00,,SCT070,0.00,VWS V14.01,2013-10-25 01:16:00,
2013-10-24 21:21:00,83.5,61.2,18.01,North,0,0.0,0.0,47,0.00,,SCT070,0.00,VWS V14.01,2013-10-25 01:21:00,
2013-10-24 21:26:00,82.9,61.2,18.01,North,0,0.0,0.0,48,0.00,,SCT070,0.00,VWS V14.01,2013-10-25 01:26:00,
2013-10-24 21:31:00,82.8,62.2,18.01,North,0,0.0,0.0,50,0.00,,SCT070,0.00,VWS V14.01,2013-10-25 01:31:00,
2013-10-24 21:36:00,82.4,64.1,18.01,North,0,0.0,0.0,54,0.00,,SCT070,0.00,VWS V14.01,2013-10-25 01:36:00,
2013-10-24 21:41:00,82.0,64.3,18.01,North,0,0.0,0.0,55,0.00,,SCT070,0.00,VWS V14.01,2013-10-25 01:41:00,
2013-10-24 21:46:00,82.0,64.3,18.01,North,0,0.0,0.0,55,0.00,,SCT070,0.00,VWS V14.01,2013-10-25 01:46:00,
2013-10-24 21:51:00,82.2,65.0,18.01,North,0,0.0,0.0,56,0.00,,SCT070,0.00,VWS V14.01,2013-10-25 01:51:00,
2013-10-24 21:56:00,82.2,64.5,18.01,North,0,0.0,0.0,55,0.00,,SCT070,0.00,VWS V14.01,2013-10-25 01:56:00,
2013-10-24 22:01:00,82.4,64.1,18.01,North,0,0.0,0.0,54,0.00,,SCT070,0.00,VWS V14.01,2013-10-25 02:01:00,
2013-10-24 22:06:00,82.6,63.7,18.01,North,0,0.0,0.0,53,0.00,,SCT070,0.00,VWS V14.01,2013-10-25 02:06:00,
2013-10-24 22:11:00,82.6,63.7,18.01,North,0,0.0,0.0,53,0.00,,SCT070,0.00,VWS V14.01,2013-10-25 02:11:00,
2013-10-24 22:16:00,82.8,63.4,18.01,North,0,0.0,0.0,52,0.00,,SCT070,0.00,VWS V14.01,2013-10-25 02:16:00,
2013-10-24 22:21:00,82.8,62.8,18.01,North,0,0.0,0.0,51,0.00,,SCT070,0.00,VWS V14.01,2013-10-25 02:21:00,
2013-10-24 22:26:00,82.8,62.8,18.01,North,0,0.0,0.0,51,0.00,,SCT070,0.00,VWS V14.01,2013-10-25 02:26:00,
2013-10-24 22:31:00,82.9,61.8,18.01,North,0,0.0,0.0,49,0.00,,SCT070,0.00,VWS V14.01,2013-10-25 02:31:00,
2013-10-24 22:36:00,82.9,61.8,18.01,North,0,0.0,0.0,49,0.00,,SCT070,0.00,VWS V14.01,2013-10-25 02:36:00,
2013-10-24 22:41:00,82.8,61.7,18.01,North,0,0.0,0.0,49,0.00,,SCT070,0.00,VWS V14.01,2013-10-25 02:41:00,
2013-10-24 22:46:00,82.6,61.5,18.01,North,0,0.0,0.0,49,0.00,,SCT070,0.00,VWS V14.01,2013-10-25 02:46:00,
2013-10-24 22:51:00,82.4,61.3,18.01,North,0,0.0,0.0,49,0.00,,SCT070,0.00,VWS V14.01,2013-10-25 02:51:00,
2013-10-24 22:56:00,82.4,61.3,18.01,North,0,0.0,0.0,49,0.00,,SCT070,0.00,VWS V14.01,2013-10-25 02:56:00,
2013-10-24 23:01:00,82.2,61.2,18.01,North,0,0.0,0.0,49,0.00,,SCT070,0.00,VWS V14.01,2013-10-25 03:01:00,
2013-10-24 23:06:00,82.2,61.2,18.01,North,0,0.0,0.0,49,0.00,,SCT070,0.00,VWS V14.01,2013-10-25 03:06:00,
2013-10-24 23:11:00,82.4,61.3,18.01,North,0,0.0,0.0,49,0.00,,SCT070,0.00,VWS V14.01,2013-10-25 03:11:00,
2013-10-24 23:16:00,82.2,61.2,18.01,North,0,0.0,0.0,49,0.00,,SCT070,0.00,VWS V14.01,2013-10-25 03:16:00,
2013-10-24 23:21:00,82.2,61.2,18.01,North,0,0.0,0.0,49,0.00,,SCT070,0.00,VWS V14.01,2013-10-25 03:21:00,
2013-10-24 23:26:00,82.2,61.2,18.01,North,0,0.0,0.0,49,0.00,,SCT070,0.00,VWS V14.01,2013-10-25 03:26:00,
2013-10-24 23:31:00,82.4,61.3,18.01,North,0,0.0,0.0,49,0.00,,SCT070,0.00,VWS V14.01,2013-10-25 03:31:00,
2013-10-24 23:36:00,82.4,61.3,18.01,North,0,0.0,0.0,49,0.00,,SCT070,0.00,VWS V14.01,2013-10-25 03:36:00,
2013-10-24 23:41:00,82.4,61.3,18.01,North,0,0.0,0.0,49,0.00,,SCT070,0.00,VWS V14.01,2013-10-25 03:41:00,
2013-10-24 23:46:00,82.2,61.8,18.01,North,0,0.0,0.0,50,0.00,,SCT070,0.00,VWS V14.01,2013-10-25 03:46:00,
2013-10-24 23:51:00,82.2,61.8,18.01,North,0,0.0,0.0,50,0.00,,SCT070,0.00,VWS V14.01,2013-10-25 03:51:00,
2013-10-24 23:56:00,82.0,61.6,18.01,North,0,0.0,0.0,50,0.00,,SCT070,0.00,VWS V14.01,2013-10-25 03:56:00,